Weather History for Fitchburg, MA

Change the Weather History Date:

Tuesday, February 26, 2013

  Actual Average (KORH) Record (KORH)
Temperature  
Mean Temperature 36 °F 29 °F  
Max Temperature 41 °F 37 °F 63 °F (1957)
Min Temperature 30 °F 22 °F -6 °F (1928)
Degree Days  
Heating Degree Days 30 36  
Month to date heating degree days 993  
Since 1 July heating degree days 4766  
Cooling Degree Days 0 0  
Month to date cooling degree days 0  
Year to date cooling degree days 0  
Moisture  
Dew Point 29 °F    
Average Humidity 76    
Maximum Humidity 96    
Minimum Humidity 57    
Precipitation  
Precipitation 0.00 in 0.13 in 1.39 in (1960)
Month to date precipitation 2.98  
Year to date precipitation 6.47  
Sea Level Pressure  
Sea Level Pressure 30.28 in    
Wind  
Wind Speed 2 mph (East)    
Max Wind Speed 9 mph    
Max Gust Speed -    
Visibility 9 miles    
Events      
T = Trace of Precipitation, MM = Missing Value Source: NWS Daily Summary

Daily Weather History Graph

Daily Weather History Graph

Search for Another Location

Airport:

Trip Planner

Search our weather history database for the weather conditions in past years. The results will help you decide how hot, cold, wet, or windy it might be!

Date:

Astronomy

Feb. 26, 2013 Rise Set
Actual Time 6:27 AM EST 5:33 PM EST
Civil Twilight 5:58 AM EST 6:01 PM EST
Nautical Twilight 5:26 AM EST 6:34 PM EST
Astronomical Twilight 4:53 AM EST 7:07 PM EST
Moon 6:49 PM EST (2/26) 6:25 AM EST (2/26)
Length of Visible Light 12h 03m
Length of Day
11h 06m
Full, 99% of the Moon is Illuminated
Feb 26
Full
Mar 4
Last Quarter
Mar 11
New
Mar 19
First Quarter
Mar 27
Full

Hourly Weather History & Observations

Time (EST) Temp. Windchill Dew Point Humidity Pressure Visibility Wind Dir Wind Speed Gust Speed Precip Events Conditions
12:52 AM 35.1 °F - 30.9 °F 85% 30.25 in 10.0 mi Calm Calm - N/A   Overcast
1:52 AM 35.1 °F - 30.9 °F 85% 30.25 in 10.0 mi Calm Calm - N/A   Overcast
2:52 AM 34.0 °F 31.0 °F 30.9 °F 89% 30.27 in 10.0 mi NW 3.5 mph - N/A   Overcast
3:52 AM 34.0 °F - 30.0 °F 85% 30.28 in 10.0 mi Calm Calm - N/A   Overcast
4:52 AM 30.9 °F - 30.0 °F 96% 30.29 in 6.0 mi Calm Calm - N/A   Overcast
5:52 AM 30.9 °F - 30.0 °F 96% 30.30 in 5.0 mi Calm Calm - N/A   Overcast
6:52 AM 30.9 °F - 30.0 °F 96% 30.31 in 4.0 mi Calm Calm - N/A   Overcast
7:19 AM 32.0 °F - 28.4 °F 87% 30.30 in 2.5 mi Calm Calm - N/A   Scattered Clouds
7:26 AM 32.0 °F - 30.2 °F 93% 30.30 in 4.0 mi Calm Calm - N/A   Partly Cloudy
7:52 AM 34.0 °F - 30.0 °F 85% 30.33 in 7.0 mi Calm Calm - N/A   Clear
8:52 AM 37.0 °F 34.5 °F 30.0 °F 76% 30.34 in 10.0 mi East 3.5 mph - N/A   Clear
10:52 AM 39.9 °F - 28.9 °F 65% 30.34 in 10.0 mi Calm Calm - N/A   Partly Cloudy
11:52 AM 39.9 °F 34.5 °F 28.0 °F 63% 30.32 in 10.0 mi ENE 8.1 mph - N/A   Mostly Cloudy
12:52 PM 41.0 °F 36.4 °F 28.0 °F 60% 30.31 in 10.0 mi ESE 6.9 mph - N/A   Overcast
1:52 PM 41.0 °F 38.0 °F 28.0 °F 60% 30.30 in 10.0 mi East 4.6 mph - N/A   Overcast
3:52 PM 39.9 °F 36.7 °F 28.0 °F 63% 30.28 in 10.0 mi Variable 4.6 mph - N/A   Overcast
4:52 PM 39.9 °F 35.8 °F 27.0 °F 60% 30.27 in 10.0 mi ESE 5.8 mph - N/A   Overcast
5:52 PM 37.9 °F 31.5 °F 24.1 °F 57% 30.27 in 10.0 mi East 9.2 mph - N/A   Partly Cloudy
6:52 PM 37.0 °F 32.4 °F 26.1 °F 65% 30.26 in 10.0 mi East 5.8 mph - N/A   Clear
7:52 PM 36.0 °F - 27.0 °F 70% 30.27 in 10.0 mi Calm Calm - N/A   Clear
8:52 PM 35.1 °F - 27.0 °F 72% 30.25 in 10.0 mi Calm Calm - N/A   Clear
9:52 PM 34.0 °F 31.0 °F 27.0 °F 75% 30.22 in 10.0 mi ENE 3.5 mph - N/A   Clear
10:52 PM 34.0 °F 31.0 °F 27.0 °F 75% 30.19 in 10.0 mi ENE 3.5 mph - N/A   Scattered Clouds
11:10 PM 33.8 °F 30.8 °F 26.6 °F 75% 30.17 in 10.0 mi ENE 3.5 mph - N/A   Mostly Cloudy